Location: Chuathbaluk
(61.5726°N, 159.2454°W)
Time: 17:42:55
(UTC+00:00)

ITAMSAT 1 - Pass Details

Date: 22 January 2021
Orbit: 784 x 796 km, 98.9° (Epoch: 05 March)

Event Time Altitude Azimuth Distance (km) Brightness Sun altitude
Rises 03:57:42 0° 166° (SSE) 3,275 11.0 -11.4°
Reaches altitude 10° 04:00:02 10° 168° (SSE) 2,348 10.2 -11.6°
Maximum altitude 04:05:13 72° 253° (WSW) 831 8.0 -12.2°
Drops below altitude 10° 04:10:25 10° 338° (NNW) 2,359 10.2 -12.8°
Sets 04:12:46 0° 341° (NNW) 3,292 10.9 -13.0°
